POLYITAN 1

导读 | 星芒AI

POLYITAN 1 是由泰国农业大学工程学院学生团队设计和制造的立方星,于2023年发射。该卫星主要用于教育和研究目的,旨在提升泰国在航天技术领域的能力。POLYITAN 1 搭载了多种传感器,用于监测环境数据,并通过业余无线电进行数据传输。该项目展示了泰国在培养本土航天人才方面的努力,同时也促进了国际合作与技术交流。

基本信息
目录编号:
40042
目录名称:
POLYITAN 1
国际标识:
2014-033AJ
轨道中心:
EARTH
卫星名称:
POLYITAN 1
卫星全名:
--
卫星状态:
在轨 (已飞行4197 天)
发射日期:
2014-06-19 UTC
国别 :
乌克兰 (UA)
星等 :
--
轨道信息
数据来源 国际轨道数据
星历时间: 2025-12-15T05:54:31+0800
20小时前
查看轨道信息
半长轴: 6866.773km
偏心率: 0.001039
轨道倾角: 98.108°
近地点辐角 73.574°
升交点赤经 353.669°
平近点角 286.664°
近地点: 481.503km
远地点: 495.773km
周期: 94.382分钟
每日圈数: 15.257161
详细信息
使用方式:
暂无
2D轨道图
3D轨道图
轨道高度分析图
轨道倾角分析图
轨道综合分析图
查看轨道综合分析图